Voltar ao catálogo

STARLINK-35961

AtivoComunicaçõesVLEO
NORAD 66530·PAYLOAD·🇺🇸 United States

Lançado Nov 19, 2025 de Cape Canaveral Space Force Station

Loading…

Próximas Passagens (próximas 24 horas)

TLE

AtualizadoSource: CelesTrak SupGP

Época: Sep 15, 2026, 02:51 UTC

1 66530C 25265Q   26258.11923611  .00013125  00000+0  47525-3 0  2582
2 66530  43.0008 288.2854 0001290 268.7280  51.8717 15.27581067    11

Acompanhe STARLINK-35961 em tempo real com AllMySat

Download on the App Store